Location: Amos
(48.5670°N, 78.1170°W)
Time: 06:22:29
(UTC-05:00)

XW-2F - Visible Passes

Search period start: 21 January 2020 00:00
Search period end: 31 January 2020 00:00
Orbit: 502 x 523 km, 97.5° (Epoch: 21 January)

Date Brightness Start Highest point End Pass type
(mag) Time Alt. Az. Time Alt. Az. Time Alt. Az.
21 Jan ? 05:19:11 10° NE 05:21:16 14° E 05:23:20 10° SE visible
21 Jan ? 06:51:58 10° N 06:55:34 49° WNW 06:59:09 10° SSW visible
21 Jan ? 17:35:00 10° S 17:38:44 64° WSW 17:42:29 10° NNW visible
22 Jan ? 06:36:12 10° N 06:39:55 76° WNW 06:43:36 10° SSW visible
23 Jan ? 06:20:31 10° NNE 06:24:14 70° ESE 06:27:54 10° S visible
23 Jan ? 18:39:49 10° WSW 18:41:43 13° W 18:43:37 10° WNW visible
24 Jan ? 06:04:55 10° NNE 06:08:30 45° E 06:12:02 10° S visible
24 Jan ? 18:23:07 10° SW 18:25:53 19° W 18:28:39 10° NW visible
25 Jan ? 05:49:25 10° NNE 05:52:44 30° E 05:56:01 10° SSE visible
25 Jan ? 18:06:48 10° SSW 18:10:04 28° W 18:13:21 10° NW visible
26 Jan ? 05:34:05 10° NE 05:36:56 21° E 05:39:45 10° SE visible
26 Jan ? 07:07:40 10° N 07:11:02 33° WNW 07:14:22 10° SW visible
26 Jan ? 17:50:44 10° S 17:54:18 41° W 17:57:53 10° NNW visible
27 Jan ? 05:19:03 10° ENE 05:21:05 14° E 05:23:08 10° SE visible
27 Jan ? 06:51:48 10° N 06:55:24 50° WNW 06:58:59 10° SSW visible
27 Jan ? 17:34:51 10° S 17:38:34 64° WSW 17:42:18 10° NNW visible
28 Jan ? 06:36:01 10° N 06:39:44 77° WNW 06:43:25 10° SSW visible
29 Jan ? 06:20:20 10° NNE 06:24:01 70° E 06:27:43 10° S visible
29 Jan ? 18:39:40 10° WSW 18:41:32 13° W 18:43:25 10° WNW visible
30 Jan ? 06:04:43 10° NNE 06:08:18 45° E 06:11:51 10° S visible
30 Jan ? 18:22:56 10° SW 18:25:42 19° W 18:28:26 10° NW visible
